Terminal Aerodrome Forecast
Issued by NWS

Home | Current Version | Previous Version | Text Only | Print | Product List | Glossary On
Versions: 1 2 3 4 5 6 7 8 9 10 11 12 13 14
000
FTUS46 KMTR 060212 AAA
TAFOAK
TAF AMD
KOAK 060212Z 0602/0706 28016KT P6SM SCT012 BKN250
      TEMPO 0602/0605 BKN012 OVC250
     FM060500 28010KT P6SM OVC012
     FM061700 28008KT P6SM FEW014 SCT250
     FM062100 28016G21KT P6SM FEW020 SCT250
     FM070300 28012KT P6SM FEW020 SCT250=

USA.gov is the U.S. government's official web portal to all federal, state and local government web resources and services.